User: anonymous   Login
Location: Unspecified
(0.0000°N, 0.0000°E)
Time: 12:19:34
(UTC+00:00)
Language:

USA 118 - Orbit

View from above orbital plane
View from above orbital plane
View from above satellite
View from above satellite

Ground track
Ground track

The orbit data is extracted from the following two-line orbital elements,

1 23855U 96026A   17066.40965936 0.00000000  00000-0  00000-0 0    01
2 23855   9.5220   1.3705 0404656 239.1575 116.8080  1.00270000    00
Epoch (UTC): 07 March 2017 09:49:54
Eccentricity: 0.0404656
inclination: 9.5220°
perigee height: 34080 km
apogee height: 37493 km
right ascension of ascending node: 1.3705°
argument of perigee: 239.1575°
revolutions per day: 1.00270000
mean anomaly at epoch: 116.8080°
orbit number at epoch: 0

The dashed part of the orbit path shows where the satellite is in the earth's shadow,  

DLR